Wind_Speed
33 33 32 31 30 27 25 25 23 22 21 19 18 18 17 16 15 14 14 13 12 12 12 11 10 9 8 8 8 8 7 7 6 7 7 7 7 8 8 7 5 4
34 34 34 32 31 30 28 26 25 24 23 21 19 18 18 17 16 15 15 15 14 13 13 13 11 10 9 9 9 8 8 8 7 7 6 6 7 7 8 8 7 7
35 35 35 34 33 31 29 28 27 25 24 23 22 20 19 18 17 16 16 16 15 14 13 13 13 12 10 10 9 9 9 9 8 7 7 7 7 7 7 7 7 7
36 36 36 35 34 32 30 29 28 26 25 25 24 22 21 19 18 17 16 16 16 15 15 14 14 13 12 11 10 10 11 11 10 9 8 7 7 7 7 7 7 7
37 37 37 36 35 33 32 30 29 28 27 26 26 24 23 21 20 19 18 16 15 15 15 15 15 14 13 12 11 11 12 12 12 11 10 8 8 7 8 8 7 7
36 37 37 36 36 34 33 31 31 30 28 27 27 26 24 23 22 21 20 18 17 15 15 14 14 14 14 13 13 13 13 12 12 14 13 10 9 8 8 9 8 7
36 36 37 36 35 35 34 33 32 32 30 29 28 28 26 25 23 22 21 20 19 17 16 15 14 14 14 14 14 14 14 14 14 15 15 13 12 11 10 10 9 8
33 33 35 35 33 33 34 34 33 33 32 30 29 29 28 27 25 24 23 22 21 20 18 17 16 15 15 15 15 15 15 15 15 16 16 15 14 14 12 11 11 11
31 31 33 33 31 31 32 33 33 34 34 32 31 29 29 29 27 25 25 24 23 22 21 19 19 18 17 17 16 16 16 16 16 16 17 16 15 15 14 13 13 13
31 30 29 29 29 28 30 30 29 32 34 34 32 30 29 30 29 27 26 25 24 23 23 22 21 20 20 19 18 17 17 17 16 17 17 17 17 15 14 14 14 14
29 28 27 28 29 28 29 30 28 28 32 34 33 31 30 31 30 29 27 26 25 25 24 24 23 22 22 21 21 20 19 18 17 18 18 18 19 18 17 16 16 15
28 28 27 29 31 30 29 29 27 27 30 33 34 32 32 32 31 31 30 29 28 26 26 26 25 24 24 23 23 22 22 21 20 20 20 20 20 20 20 19 19 18
28 29 29 30 32 33 30 27 27 28 29 32 34 34 33 32 32 33 33 32 31 29 28 28 28 27 27 26 25 24 24 24 23 22 22 22 22 22 21 20 20 19
30 29 30 32 34 36 34 30 28 28 29 31 34 34 34 33 33 34 35 34 33 32 31 30 30 30 29 29 28 27 26 26 25 25 24 24 25 24 23 22 21 20
33 30 29 33 35 36 36 34 31 30 31 33 34 35 35 34 34 34 34 36 36 35 34 33 32 32 32 32 31 29 29 27 27 27 26 26 26 26 25 24 24 22
37 35 32 32 35 37 37 37 35 32 31 33 36 36 35 35 35 35 34 34 36 37 37 35 35 36 36 35 34 33 31 29 28 29 28 28 28 27 26 25 26 25
37 36 34 34 36 38 37 37 36 33 32 34 36 36 36 36 36 35 33 31 31 34 36 37 38 40 40 39 38 36 34 32 31 31 31 30 29 28 27 26 26 26
35 33 33 36 37 37 37 37 36 33 33 35 36 36 37 36 34 35 35 32 28 28 31 34 39 42 42 41 41 39 37 35 32 29 28 28 28 27 27 27 25 24
35 32 33 35 36 37 37 36 34 33 33 34 34 34 34 36 36 35 36 35 31 29 30 31 35 40 42 42 41 41 39 37 34 29 25 25 26 26 26 26 27 26
34 33 34 35 37 37 35 33 32 34 33 31 29 29 31 36 37 34 36 39 37 35 35 33 33 36 40 41 41 41 39 37 35 32 27 25 26 26 25 26 28 29
32 34 34 35 36 34 33 32 32 33 33 29 26 26 30 36 36 32 33 38 39 37 36 34 35 37 38 39 40 40 38 37 36 34 30 27 26 27 27 28 30 30
29 31 32 33 31 30 30 30 31 34 35 33 28 26 26 30 33 31 32 35 36 35 33 32 35 38 38 39 40 38 37 35 35 36 34 30 27 28 29 31 33 32
28 31 31 29 27 26 28 30 31 34 35 33 30 27 26 27 29 31 33 34 33 33 33 35 38 40 39 39 39 37 36 35 35 36 36 34 32 31 31 32 34 34
26 32 32 30 27 26 28 30 30 31 31 30 30 29 28 28 28 29 31 32 32 32 34 37 39 41 41 40 39 38 36 36 36 36 35 34 34 34 33 33 34 35
18 26 30 30 29 30 30 29 28 28 28 28 28 29 28 28 27 26 27 30 32 33 34 36 36 36 38 39 39 38 37 37 37 35 33 32 32 32 32 33 35 35
11 17 23 26 28 29 29 27 27 27 27 26 26 27 27 27 26 26 27 28 29 30 32 33 34 34 34 36 38 37 36 37 37 35 33 32 31 29 28 29 31 33
Wind_Direction
219 220 221 224 226 228 230 233 235 237 238 240 242 243 243 243 242 238 234 228 222 222 222 219 220 223 226 231 231 230 231 228 227 230 234 241 246 247 247 250 253 258
218 220 221 223 227 229 232 234 237 238 239 241 242 244 246 246 246 245 241 235 227 222 220 218 220 224 227 232 235 235 236 233 233 237 240 246 250 246 245 246 247 253
217 218 220 222 226 229 231 232 235 238 239 241 243 245 247 248 249 249 246 242 235 230 225 221 221 225 228 231 236 240 240 238 237 241 249 252 253 251 246 244 247 250
217 218 220 221 224 228 230 231 234 236 237 240 243 245 247 249 251 252 250 246 241 237 234 229 225 225 229 231 235 241 243 243 242 243 254 258 256 256 252 251 252 248
217 219 220 221 223 227 229 231 233 235 237 239 242 245 247 249 250 252 251 248 243 240 237 235 231 228 228 231 235 241 244 245 245 246 252 256 256 259 258 258 259 253
217 219 220 221 224 227 229 230 232 235 238 240 241 243 245 247 249 250 250 249 247 242 238 236 236 233 231 233 235 241 244 243 245 249 252 255 256 261 263 261 260 258
217 219 220 222 224 226 228 230 232 234 236 238 240 242 243 245 248 249 250 250 250 247 243 242 242 239 236 237 239 243 247 248 249 250 251 253 256 262 266 264 261 260
215 217 220 221 221 224 226 229 231 233 234 236 238 241 243 244 247 249 250 250 251 252 252 251 250 248 244 243 244 245 249 251 253 253 253 253 256 259 263 265 265 265
212 214 217 218 217 219 223 225 229 232 234 235 236 238 242 244 246 248 248 249 251 253 255 255 255 253 249 249 248 248 249 250 253 256 256 255 256 257 259 260 264 265
210 211 212 213 213 216 220 222 224 229 233 235 235 235 239 243 245 246 248 248 249 251 254 255 255 254 251 250 250 251 251 252 254 257 258 258 258 257 256 255 257 261
208 209 208 210 212 215 219 220 220 224 231 234 234 233 236 240 242 243 245 246 247 250 252 253 255 255 254 253 253 253 253 254 256 258 259 260 261 262 261 259 257 257
206 206 207 210 214 216 218 218 218 220 228 233 233 232 234 237 238 240 243 245 247 249 251 253 255 256 257 257 256 255 255 256 257 259 261 261 261 262 263 262 261 260
206 206 208 210 215 219 217 216 217 219 223 229 232 233 233 234 235 239 242 244 247 249 251 253 254 255 256 258 257 255 255 256 257 258 260 261 262 261 260 260 261 260
208 208 209 213 218 221 220 217 217 219 222 227 231 232 233 233 234 238 241 244 246 248 249 251 252 253 254 256 256 255 254 254 256 257 258 259 262 263 261 261 260 258
212 210 211 216 218 221 222 221 220 221 224 227 230 232 233 234 235 236 239 242 244 246 248 249 250 250 252 253 253 253 252 251 253 256 257 257 260 262 262 263 263 260
218 216 214 216 219 222 224 224 223 223 224 227 230 232 233 233 235 235 237 239 242 244 246 246 247 249 251 252 252 252 252 250 251 255 256 257 258 259 259 261 263 263
220 219 219 220 222 223 224 224 224 222 224 227 230 231 232 232 233 235 235 235 237 241 243 244 246 249 251 252 253 252 250 248 249 253 256 256 255 255 256 257 259 261
219 217 219 222 224 223 223 224 223 222 224 227 229 230 231 231 231 233 234 233 232 235 238 241 245 248 250 251 252 252 250 248 247 248 250 251 251 250 252 254 254 255
218 216 218 221 223 223 223 223 221 221 223 225 227 228 229 230 230 231 233 233 231 232 234 237 242 247 250 250 251 252 251 248 245 243 243 244 245 247 248 250 252 252
218 218 218 220 222 222 221 220 219 221 223 222 223 223 225 229 230 229 232 235 234 234 236 237 240 245 248 250 250 251 251 249 246 243 241 241 243 245 246 247 251 253
219 219 219 220 221 220 219 218 218 221 222 219 218 219 223 230 230 227 230 235 236 235 236 238 240 243 246 248 250 251 250 248 246 243 241 241 243 245 246 248 252 253
220 220 220 221 220 217 216 217 218 222 223 220 219 220 223 227 228 227 229 234 235 233 233 236 240 243 244 246 250 250 248 246 245 244 243 241 241 244 246 250 253 252
223 223 222 222 219 215 216 217 218 222 224 221 219 220 222 222 223 225 228 230 231 229 229 234 240 243 244 244 247 248 245 242 242 242 242 241 242 244 245 249 252 251
226 226 224 223 221 220 219 220 221 222 222 220 219 221 223 224 224 225 226 229 229 227 228 233 239 243 243 243 244 244 241 240 240 240 240 241 242 244 244 246 249 251
231 226 223 221 222 225 225 223 222 223 221 219 220 222 225 228 228 226 226 228 229 229 231 233 237 242 243 242 243 242 239 238 238 236 236 238 239 241 242 243 247 250
256 233 224 221 222 224 226 225 224 224 222 220 223 226 228 231 231 229 230 231 230 230 231 232 235 238 241 242 243 241 238 236 234 232 233 235 236 236 237 239 242 245
Height
844 846 848 849 851 853 855 856 858 859 861 862 863 865 866 868 869 871 872 873 874 876 876 877 878 878 879 880 880 881 881 882 883 883 884 884 885 885 886 886 887 887
841 843 846 848 849 851 853 855 857 858 859 861 862 864 865 866 868 869 871 872 873 874 875 876 877 878 878 879 880 880 881 881 882 882 883 883 884 885 885 886 886 887
839 841 843 845 847 849 852 853 855 857 859 860 861 862 863 865 866 868 869 870 872 873 874 875 876 877 877 878 879 879 880 881 881 881 882 882 883 884 884 885 885 886
837 838 840 843 845 847 849 851 853 855 857 858 859 861 862 863 864 866 867 868 870 871 872 873 874 875 876 877 878 879 879 880 880 881 881 881 882 882 883 883 884 884
834 836 838 840 842 845 847 849 851 853 854 856 858 859 860 861 863 864 865 867 868 869 871 872 873 874 875 876 876 877 878 879 879 879 880 880 881 881 882 882 883 883
831 834 836 838 840 842 844 846 848 850 852 854 855 857 859 860 861 862 864 865 867 868 869 870 871 872 873 874 875 875 876 877 878 878 878 879 879 880 880 881 881 882
829 831 834 836 838 840 841 843 845 847 850 852 853 855 857 858 860 861 862 864 865 866 867 868 869 870 871 872 873 873 874 875 876 876 877 877 878 879 879 880 880 881
826 829 831 833 836 837 839 840 842 844 847 849 851 852 854 856 858 859 860 862 863 864 865 866 867 868 869 870 871 871 872 873 873 874 875 875 876 877 877 878 879 879
823 826 828 831 833 835 836 838 839 841 843 846 848 850 851 853 855 857 858 859 861 862 863 864 865 866 867 868 869 869 870 871 871 872 873 873 874 875 876 876 877 878
820 822 825 827 830 832 833 835 837 838 840 842 845 847 848 850 852 853 855 856 858 859 860 862 863 864 865 866 867 867 868 869 869 870 871 871 872 873 874 875 875 876
816 819 822 824 826 828 830 832 834 836 837 839 841 843 845 846 848 850 852 853 854 856 857 859 860 861 863 863 864 865 866 867 867 868 869 869 870 871 872 873 873 874
813 815 818 819 822 824 826 829 831 832 834 835 837 840 841 843 845 846 848 849 851 852 854 855 857 858 859 860 862 863 864 865 865 866 866 867 868 869 869 870 871 872
808 811 813 815 817 820 822 825 827 829 830 832 834 836 838 839 841 842 844 845 847 848 850 851 853 854 856 857 859 860 861 862 863 863 864 864 865 866 867 868 868 869
804 807 809 811 813 816 818 821 823 825 827 828 830 832 833 835 837 839 840 841 843 844 846 848 849 850 852 853 855 856 858 859 860 861 861 862 862 863 864 865 866 867
800 803 805 807 810 812 814 817 819 821 823 825 826 827 829 831 833 835 836 838 839 840 842 844 845 846 847 849 851 852 854 855 856 857 859 859 860 860 861 862 862 863
798 800 802 804 806 808 810 813 815 818 819 821 822 824 826 827 829 831 833 834 835 837 838 839 840 841 843 844 846 848 850 852 853 854 855 856 857 857 858 859 859 860
795 798 799 801 802 805 807 809 812 814 816 817 818 820 822 823 825 827 829 831 832 833 834 835 836 837 838 840 842 844 846 848 849 850 851 852 853 854 855 855 856 856
793 795 797 798 800 802 804 806 808 811 812 813 815 816 818 820 822 823 825 827 829 830 831 831 831 832 834 836 838 839 842 844 845 847 847 848 849 850 851 852 852 853
790 792 794 796 797 799 801 803 805 807 808 810 811 813 815 816 817 819 820 822 824 825 826 827 827 828 830 832 833 835 837 840 842 843 844 844 845 846 847 848 849 850
788 790 791 793 794 796 799 801 802 804 805 807 809 810 811 812 813 815 816 817 819 820 821 822 823 824 825 827 829 831 833 835 838 839 840 840 841 842 843 844 845 846
786 787 788 790 792 794 796 798 799 801 802 804 806 807 808 808 810 812 812 813 814 815 817 817 818 819 821 822 824 826 829 831 834 835 836 837 837 838 839 840 841 842
784 785 787 788 790 792 794 795 796 797 799 801 802 804 804 805 806 808 808 808 810 811 812 812 812 813 815 817 819 821 825 828 829 831 832 832 833 833 834 835 837 838
782 784 785 787 789 790 791 791 793 794 795 797 799 800 801 801 801 802 802 803 804 805 807 807 806 807 810 812 814 817 820 823 824 826 827 828 828 829 830 831 831 833
779 780 782 785 787 787 788 788 789 790 792 793 795 796 797 797 797 797 798 798 799 799 800 800 800 801 803 806 808 811 815 817 819 821 822 823 824 825 825 826 826 827
775 776 778 780 783 784 785 786 787 787 789 790 791 793 794 794 794 794 794 794 794 794 795 796 796 797 798 800 803 806 809 811 813 816 817 818 819 820 820 821 821 822
772 772 773 775 777 779 781 783 783 784 786 787 789 790 791 791 791 791 791 790 790 790 791 792 792 792 794 795 798 801 803 805 808 810 811 812 814 815 816 816 816 817